[[{"header":{"parameterUnit":"m.s-1","parameterCategory":1,"la1":30.2991,"la2":30.254,"lo1":-89.0895,"lo2":-89.0444,"dy":0.0017,"dx":0.0017,"nx":28,"ny":28,"refTime":"2023-09-30T09:00:00:Z","depth":0,"parameterNumber":2,"parameterNumberName":"U-component_of_WINDS"},"data":[0,0,0,0,0,0,0,0,0,0,0,0,0,0,0,0,0,0,0,0,0,0,0,0,0,0,0,0,0,0,0,0,0,0,0,0,0,0,0,0,0,0,0,0,0,0,0,0,0,0,0,0,0,0,0,0,0,0,-5.465,-5.465,0,-5.464,-5.464,-5.464,-5.4486,-5.4482,-5.4478,-5.4474,-5.4465,-5.4469,-5.4472,0,0,0,0,0,0,0,0,0,0,0,0,0,-5.454,-5.4543,-5.465,-5.465,-5.465,-5.464,-5.464,-5.464,-5.4486,-5.4481,-5.4477,-5.4472,-5.4464,-5.4468,-5.4472,0,0,0,0,0,0,0,0,0,0,0,0,0,-5.4565,-5.4544,-5.465,-5.4572,-5.4565,-5.464,-5.464,-5.4639,-5.4487,-5.4481,-5.4475,-5.447,-5.4463,-5.4468,-5.4473,-5.4622,0,0,-5.4488,-5.4491,0,0,0,0,0,0,0,0,-5.4564,-5.4569,-5.4584,-5.4578,-5.457,-5.4558,-5.4597,-5.4634,-5.4489,-5.4517,-5.4474,-5.4467,-5.4501,-5.4503,-5.4514,-5.4622,-5.4621,-5.4489,-5.4492,-5.4494,-5.4496,0,0,0,0,0,0,0,-5.4562,-5.4569,-5.4646,-5.4584,-5.4576,-5.4539,-5.4536,-5.4604,-5.4542,-5.4514,-5.4503,-5.4504,-5.4496,-5.4509,-5.4512,-5.4621,-5.4489,-5.4493,-5.4496,-5.4498,-5.4855,-5.4861,0,0,0,0,0,0,-5.4571,-5.4568,-5.4646,-5.4646,-5.4552,-5.4545,-5.4542,-5.4568,-5.4541,-5.4531,-5.4509,-5.4496,-5.4503,-5.4506,-5.4511,-5.4686,-5.4494,-5.4499,-5.4502,-5.4848,-5.4856,-5.4863,0,0,0,0,0,0,-5.4569,-5.4579,-5.4647,-5.4604,-5.461,-5.4554,-5.4584,-5.4571,-5.4583,-5.4537,-5.4525,-5.4533,-5.4499,-5.4504,-5.4596,-5.4684,-5.4501,-5.4506,-5.4841,-5.4851,-5.4859,-5.5037,0,0,0,0,0,0,-5.4567,-5.458,-5.4635,-5.4606,-5.4613,-5.4731,-5.4589,-5.4575,-5.4592,-5.4576,-5.4557,-5.4548,-5.4494,-5.459,-5.4602,-5.4688,-5.451,-5.4833,-5.4845,-5.4856,-5.5023,-5.5051,-5.5076,0,0,0,0,0,-5.4563,-5.4685,-5.4638,-5.4649,-5.468,-5.4737,-5.474,-5.4676,-5.46,-5.4656,-5.4626,-5.4548,-5.4672,-5.46,-5.4612,-5.4701,-5.4827,-5.4842,-5.4856,-5.5011,-5.5046,-5.5075,0,0,0,0,0,0,-5.4725,-5.4679,-5.4627,-5.4743,-5.4745,-5.4711,-5.4779,-5.4714,-5.4738,-5.4722,-5.4642,-5.4639,-5.4744,-5.4731,-5.4652,-5.4846,-5.4736,-5.4754,-5.485,-5.4883,-5.4909,-5.491,-5.4514,0,0,0,0,0,-5.4774,-5.4823,-5.4781,-5.4887,-5.4891,-5.4836,-5.4857,-5.4808,-5.4807,-5.4807,-5.4783,-5.4786,-5.4826,-5.4853,-5.4887,-5.502,-5.5015,-5.5088,-5.5114,-5.5136,-5.5153,-5.5225,-5.5257,-5.491,-5.491,-5.491,0,0,-5.4876,-5.4857,-5.4893,-5.4919,-5.4915,-5.4969,-5.4837,-5.4898,-5.4938,-5.4816,-5.4902,-5.4886,-5.4883,-5.4998,-5.5047,-5.4991,-5.5247,-5.5154,-5.5172,-5.5177,-5.5243,-5.5276,-5.5305,-5.492,-5.4918,-5.4916,0,0,-5.5089,-5.5079,-5.5168,-5.5167,-5.5162,-5.5125,-5.5147,-5.5122,-5.5107,-5.5192,-5.5103,-5.5149,-5.5218,-5.5221,-5.5231,-5.545,-5.538,-5.5463,-5.5601,-5.5672,-5.57,-5.5724,-5.5804,-5.5833,-5.5479,-5.548,-5.548,0,-5.5217,-5.5293,-5.5222,-5.529,-5.5306,-5.5198,-5.5289,-5.5291,-5.5298,-5.5312,-5.5249,-5.5335,-5.5326,-5.5441,-5.5494,-5.5506,-5.553,-5.5465,-5.5702,-5.5725,-5.5746,-5.5821,-5.5852,-5.549,-5.5489,-5.5488,-5.5487,0,-5.5451,-5.5506,-5.5578,-5.5588,-5.5612,-5.5691,-5.5634,-5.5666,-5.5616,-5.5586,-5.5676,-5.5661,-5.5691,-5.5714,-5.5665,-5.5824,-5.5789,-5.5715,-5.5603,-5.5791,-5.586,-5.5888,-5.5505,-5.5501,-5.5498,-5.5495,0,0,-5.5764,-5.5736,-5.5764,-5.5768,-5.5757,-5.5798,-5.5874,-5.5903,-5.5934,-5.5943,-5.6006,-5.6068,-5.6001,-5.6013,-5.5963,-5.6026,-5.6203,-5.5944,-5.5943,-5.5995,-5.638,-5.6437,-5.6471,-5.6157,-5.6162,-5.6166,-5.6381,0,-5.5972,-5.6098,-5.6038,-5.6173,-5.6224,-5.6124,-5.619,-5.6191,-5.6166,-5.6207,-5.6179,-5.6225,-5.6131,-5.6139,-5.6196,-5.617,-5.628,-5.6153,-5.6216,-5.6219,-5.6221,-5.6507,-5.6566,-5.6769,-5.6407,-5.6412,-5.6415,0,-5.623,-5.6251,-5.6391,-5.6373,-5.6392,-5.6452,-5.6476,-5.6516,-5.6516,-5.6493,-5.6509,-5.6446,-5.652,-5.641,-5.6512,-5.6428,-5.645,-5.6442,-5.6448,-5.6452,-5.6329,-5.652,-5.6832,-5.6863,-5.6457,-5.6453,-5.645,0,-5.6447,-5.651,-5.6603,-5.6609,-5.659,-5.6635,-5.6629,-5.6623,-5.6646,-5.6667,-5.6681,-5.6711,-5.6728,-5.6754,-5.6701,-5.6625,-5.6813,-5.6696,-5.6798,-5.68,-5.6842,-5.684,-5.7164,-5.6855,-5.6855,-5.6854,-5.6853,0,-5.6685,-5.6776,-5.67,-5.6757,-5.6856,-5.6787,-5.6887,-5.687,-5.6867,-5.692,-5.6835,-5.6887,-5.6814,-5.686,-5.6819,-5.6913,-5.692,-5.6906,-5.6894,-5.6914,-5.6916,-5.6928,-5.6913,-5.6862,-5.686,-5.6859,-5.6857,0,-5.6944,-5.6897,-5.6992,-5.6966,-5.6962,-5.7037,-5.7015,-5.7068,-5.7037,-5.7106,-5.7119,-5.7072,-5.7121,-5.7072,-5.7118,-5.709,-5.7216,-5.7183,-5.7216,-5.7208,-5.7312,-5.7304,-5.7655,-5.7699,-5.7362,-5.7365,-5.7368,0,-5.71,-5.7167,-5.7149,-5.7179,-5.7179,-5.7227,-5.725,-5.7186,-5.7214,-5.7221,-5.7273,-5.7316,-5.7346,-5.7431,-5.7402,-5.7437,-5.7405,-5.7526,-5.741,-5.7429,-5.7409,-5.7407,-5.7414,-5.755,-5.7554,-5.7558,-5.756,0,-5.7382,-5.7356,-5.7392,-5.7422,-5.7452,-5.7473,-5.7486,-5.7516,-5.7449,-5.7485,-5.7535,-5.7559,-5.7607,-5.7651,-5.7679,-5.7673,-5.7608,-5.7597,-5.7623,-5.7644,-5.7661,-5.7655,-5.7282,-5.7589,-5.7586,-5.7584,-5.7583,-5.7582,-5.7594,-5.7651,-5.7648,-5.7692,-5.7696,-5.7712,-5.7761,-5.7737,-5.7778,-5.7812,-5.7771,-5.7834,-5.7835,-5.7865,-5.7868,-5.7917,-5.7866,-5.7903,-5.7912,-5.7922,-5.7939,-5.7653,-5.7921,-5.7921,-5.792,-5.7919,-5.7918,0,-5.7873,-5.7867,-5.7909,-5.7931,-5.7967,-5.7901,-5.7914,-5.7949,-5.8004,-5.8011,-5.8043,-5.8102,-5.8145,-5.8121,-5.8158,-5.8203,-5.8173,-5.8215,-5.8211,-5.8212,-5.7981,-5.7956,-5.8238,-5.8238,-5.8238,-5.8238,-5.8238,-5.8238,-5.8023,-5.8115,-5.809,-5.8184,-5.8177,-5.8237,-5.8251,-5.8265,-5.827,-5.834,-5.8376,-5.8359,-5.8354,-5.8391,-5.8429,-5.8421,-5.8439,-5.8493,-5.8474,-5.8259,-5.8228,-5.8198,-5.8174,-5.8497,-5.8497,-5.87,-5.8702,-5.8704]},{"header":{"parameterUnit":"m.s-1","parameterCategory":1,"la1":30.2991,"la2":30.254,"lo1":-89.0895,"lo2":-89.0444,"dy":0.0017,"dx":0.0017,"nx":28,"ny":28,"refTime":"2023-09-30T09:00:00:Z","depth":0,"parameterNumber":3,"parameterNumberName":"V-component_of_WINDS"},"data":[0,0,0,0,0,0,0,0,0,0,0,0,0,0,0,0,0,0,0,0,0,0,0,0,0,0,0,0,0,0,0,0,0,0,0,0,0,0,0,0,0,0,0,0,0,0,0,0,0,0,0,0,0,0,0,0,0,0,1.3305,1.3304,0,1.3268,1.3268,1.3267,1.3285,1.3286,1.3287,1.3288,1.3243,1.3241,1.3239,0,0,0,0,0,0,0,0,0,0,0,0,0,1.3385,1.3383,1.3305,1.3304,1.3304,1.3268,1.3268,1.3267,1.3285,1.3286,1.3287,1.3289,1.3244,1.3241,1.3239,0,0,0,0,0,0,0,0,0,0,0,0,0,1.3349,1.3383,1.3305,1.3309,1.3309,1.3268,1.3268,1.3267,1.3285,1.3286,1.3288,1.3289,1.3245,1.3242,1.3238,1.319,0,0,1.3229,1.3227,0,0,0,0,0,0,0,0,1.3351,1.3346,1.3309,1.3308,1.3308,1.3283,1.3279,1.3241,1.3285,1.3294,1.3288,1.329,1.3255,1.3251,1.324,1.3188,1.3186,1.3228,1.3227,1.3225,1.3224,0,0,0,0,0,0,0,1.3353,1.3348,1.329,1.3308,1.3308,1.331,1.3307,1.3272,1.3266,1.3293,1.3294,1.329,1.3255,1.3243,1.3239,1.3185,1.3229,1.3226,1.3224,1.3223,1.309,1.3088,0,0,0,0,0,0,1.3357,1.335,1.3291,1.3289,1.3334,1.3308,1.3304,1.3289,1.3267,1.3265,1.3289,1.3291,1.3248,1.3243,1.3238,1.3178,1.3225,1.3222,1.322,1.3091,1.3089,1.3088,0,0,0,0,0,0,1.3358,1.3351,1.3293,1.332,1.3313,1.3305,1.3289,1.3288,1.3277,1.3264,1.3262,1.3279,1.3249,1.3242,1.3202,1.3177,1.3221,1.3218,1.3093,1.3091,1.3089,1.3059,0,0,0,0,0,0,1.3361,1.3352,1.3334,1.3319,1.3311,1.3259,1.3287,1.3286,1.3272,1.3275,1.3254,1.3251,1.325,1.3207,1.3199,1.3173,1.3215,1.3095,1.3092,1.3089,1.3062,1.3056,1.3051,0,0,0,0,0,1.3363,1.3326,1.3333,1.3326,1.3289,1.3258,1.3252,1.3253,1.327,1.3251,1.3243,1.3252,1.3182,1.3202,1.3194,1.3167,1.3097,1.3093,1.309,1.3065,1.3057,1.3051,0,0,0,0,0,0,1.3335,1.3324,1.3332,1.3289,1.3275,1.3261,1.3237,1.3245,1.3223,1.3226,1.3226,1.3222,1.3179,1.317,1.3193,1.3119,1.3142,1.3136,1.3126,1.3119,1.3113,1.3114,1.3213,0,0,0,0,0,1.3325,1.3302,1.3293,1.3255,1.3248,1.3244,1.323,1.3233,1.3216,1.3209,1.3198,1.318,1.3154,1.3136,1.3112,1.3063,1.3057,1.304,1.3034,1.303,1.3023,1.2995,1.2987,1.3076,1.3076,1.3076,0,0,1.3301,1.3292,1.3277,1.325,1.3239,1.3213,1.3238,1.321,1.319,1.3204,1.3165,1.3157,1.3137,1.3092,1.3071,1.3082,1.2999,1.3025,1.3021,1.3017,1.2991,1.2982,1.2975,1.3073,1.3074,1.3074,0,0,1.3245,1.3237,1.3205,1.3194,1.3178,1.3176,1.3169,1.3154,1.315,1.3112,1.3122,1.3098,1.3053,1.3038,1.3024,1.2965,1.2972,1.2958,1.2925,1.2898,1.2891,1.2885,1.2861,1.2853,1.2952,1.2952,1.2952,0,1.3216,1.318,1.3187,1.3158,1.3145,1.316,1.3126,1.3115,1.309,1.308,1.3094,1.3039,1.3027,1.2977,1.2963,1.2953,1.2942,1.2958,1.2892,1.2886,1.288,1.2858,1.2849,1.295,1.2951,1.2951,1.2951,0,1.3145,1.312,1.3096,1.3075,1.3059,1.3028,1.3028,1.3012,1.3016,1.3012,1.2973,1.2959,1.2932,1.2921,1.2924,1.2873,1.288,1.2893,1.2916,1.287,1.2849,1.284,1.2948,1.2948,1.2949,1.2949,0,0,1.3065,1.3052,1.3042,1.3033,1.3018,1.2997,1.2967,1.2943,1.2927,1.2911,1.2883,1.2847,1.286,1.2845,1.2847,1.2823,1.2775,1.2839,1.2839,1.2825,1.2715,1.2702,1.2692,1.2781,1.278,1.2778,1.2715,0,1.3006,1.2955,1.2961,1.2911,1.2886,1.2902,1.2875,1.2862,1.2858,1.2836,1.2831,1.2804,1.2825,1.2815,1.2793,1.2785,1.2752,1.2791,1.2752,1.2751,1.2753,1.2681,1.2668,1.2609,1.2707,1.2706,1.2705,0,1.2928,1.2912,1.286,1.285,1.284,1.2816,1.2794,1.2774,1.2759,1.2758,1.2742,1.2749,1.2716,1.2743,1.2697,1.2723,1.2708,1.2702,1.27,1.2693,1.2722,1.2669,1.259,1.258,1.2692,1.2693,1.2694,0,1.2872,1.2837,1.2802,1.2794,1.2781,1.2764,1.2757,1.2744,1.273,1.2711,1.2701,1.2678,1.2664,1.2646,1.2645,1.2665,1.2597,1.2625,1.2593,1.2593,1.2574,1.2574,1.2488,1.2571,1.2571,1.2571,1.2571,0,1.2803,1.2769,1.2777,1.2754,1.2717,1.2725,1.2687,1.2683,1.2672,1.2647,1.266,1.2636,1.2639,1.2615,1.2614,1.2575,1.2569,1.2565,1.2565,1.2562,1.2562,1.2549,1.2552,1.2569,1.2569,1.257,1.257,0,1.2731,1.2736,1.2697,1.269,1.2687,1.266,1.2653,1.2631,1.263,1.2599,1.2592,1.2589,1.2561,1.2561,1.2528,1.2528,1.2479,1.2485,1.2484,1.2484,1.2451,1.2453,1.235,1.2335,1.2431,1.243,1.243,0,1.2685,1.266,1.2651,1.2637,1.263,1.2607,1.2593,1.2601,1.2585,1.2568,1.2547,1.2522,1.2501,1.2456,1.2449,1.2424,1.2427,1.2393,1.2423,1.2421,1.2423,1.2423,1.2419,1.2385,1.2384,1.2384,1.2383,0,1.2601,1.2605,1.2585,1.2567,1.2551,1.2536,1.2522,1.2509,1.2515,1.2497,1.247,1.2455,1.2423,1.2396,1.2373,1.2364,1.2372,1.2375,1.2365,1.236,1.2359,1.2356,1.2464,1.2376,1.2376,1.2377,1.2377,1.2378,1.2538,1.2517,1.2507,1.2485,1.2477,1.2465,1.2443,1.2442,1.242,1.2396,1.2402,1.2372,1.2358,1.2328,1.2318,1.2292,1.2303,1.2291,1.2287,1.2282,1.2278,1.2367,1.2288,1.2289,1.2289,1.2289,1.2289,0,1.2452,1.2448,1.2428,1.241,1.2392,1.2408,1.2394,1.2377,1.2351,1.2339,1.232,1.2289,1.2264,1.2257,1.2232,1.2213,1.2216,1.2206,1.2205,1.2202,1.227,1.2279,1.2203,1.2203,1.2203,1.2203,1.2203,1.2203,1.2405,1.2369,1.2372,1.2332,1.2328,1.23,1.229,1.2278,1.2269,1.2234,1.2214,1.2212,1.2201,1.2176,1.2153,1.2152,1.214,1.2127,1.2127,1.2189,1.2198,1.2206,1.2214,1.2126,1.2125,1.206,1.206,1.2059]}]]